Location: Newark
(34.3481°N, 134.0494°E)
Time: 00:35:32
(UTC+00:00)

Vanguard 3 - Pass Details

Date: 27 January 2020
Orbit: 508 x 3263 km, 33.3° (Epoch: 20 February)

Event Time Altitude Azimuth Distance (km) Brightness Sun altitude
Rises 11:44:10 0° 278° (W) 7,229 12.9 -40.5°
Reaches altitude 10° 11:49:12 10° 278° (W) 6,132 12.2 -41.5°
Enters shadow 12:07:42 78° 210° (SSW) 2,535 9.3 -45.3°
